Weather History for KMRY - March, 2014

Change the Weather History Date:

Wednesday, March 19, 2014

  Actual Average Record
Temperature  
Mean Temperature 60 °F 53 °F  
Max Temperature 75 °F 61 °F 80 °F (2010)
Min Temperature 45 °F 46 °F 38 °F (2002)
Degree Days  
Heating Degree Days 5    
Month to date heating degree days 129  
Since 1 July heating degree days 1933  
Cooling Degree Days 0    
Month to date cooling degree days 0  
Year to date cooling degree days 2  
Growing Degree Days 10 (Base 50)    
Moisture  
Dew Point 39 °F    
Average Humidity 46    
Maximum Humidity 72    
Minimum Humidity 19    
Precipitation  
Precipitation 0.00 in - - ()
Month to date precipitation 1.02  
Year to date precipitation 4.82  
Since 1 July precipitation 6.10  
Sea Level Pressure  
Sea Level Pressure 30.06 in    
Wind  
Wind Speed 5 mph (SSE)    
Max Wind Speed 17 mph    
Max Gust Speed 23 mph    
Visibility 10 miles    
Events      
T = Trace of Precipitation, MM = Missing Value Source: NWS Daily Summary

Daily Weather History Graph

Daily Weather History Graph

Search for Another Location

Airport or City:

Trip Planner

Search our weather history database for the weather conditions in past years. The results will help you decide how hot, cold, wet, or windy it might be!

Date:

Astronomy

Mar. 19, 2014 Rise Set
Actual Time 7:12 AM PDT 7:18 PM PDT
Civil Twilight 6:46 AM PDT 7:44 PM PDT
Nautical Twilight 6:16 AM PDT 8:14 PM PDT
Astronomical Twilight 5:46 AM PDT 8:44 PM PDT
Moon 10:36 PM PDT (3/19) 8:46 AM PDT (3/19)
Length of Visible Light 12h 57m
Length of Day
12h 06m
Waning Gibbous, 90% of the Moon is Illuminated
Mar 19
Waning Gibbous
Mar 23
Last Quarter
Mar 30
New
Apr 7
First Quarter
Apr 15
Full

Hourly Weather History & Observations

Time (PDT) Temp. Windchill Dew Point Humidity Pressure Visibility Wind Dir Wind Speed Gust Speed Precip Events Conditions
12:54 AM 51.1 °F - 35.1 °F 54% 30.00 in 10.0 mi East 5.8 mph - N/A   Clear
1:54 AM 51.1 °F - 34.0 °F 52% 30.01 in 10.0 mi SSE 4.6 mph - N/A   Clear
2:54 AM 48.9 °F - 34.0 °F 56% 30.02 in 10.0 mi Calm Calm - N/A   Clear
3:54 AM 48.9 °F - 39.0 °F 69% 30.01 in 10.0 mi SE 3.5 mph - N/A   Clear
4:54 AM 48.0 °F - 35.1 °F 61% 30.00 in 10.0 mi East 8.1 mph - N/A   Clear
5:54 AM 46.0 °F 44.8 °F 35.1 °F 66% 30.01 in 10.0 mi SE 3.5 mph - N/A   Clear
6:54 AM 46.9 °F - 36.0 °F 66% 30.03 in 10.0 mi East 3.5 mph - N/A   Clear
7:54 AM 48.0 °F - 36.0 °F 63% 30.05 in 10.0 mi East 4.6 mph - N/A   Clear
8:54 AM 57.0 °F - 37.0 °F 47% 30.07 in 10.0 mi Calm Calm - N/A   Clear
9:54 AM 61.0 °F - 42.1 °F 50% 30.08 in 9.0 mi Calm Calm - N/A   Clear
10:54 AM 64.9 °F - 39.0 °F 39% 30.09 in 10.0 mi NW 3.5 mph - N/A   Clear
11:54 AM 70.0 °F - 37.0 °F 30% 30.10 in 10.0 mi West 5.8 mph - N/A   Clear
12:54 PM 69.1 °F - 39.9 °F 35% 30.10 in 10.0 mi WNW 5.8 mph - N/A   Clear
1:54 PM 70.0 °F - 42.1 °F 36% 30.08 in 10.0 mi NW 6.9 mph - N/A   Clear
2:54 PM 75.0 °F - 30.9 °F 20% 30.06 in 10.0 mi SSW 11.5 mph 18.4 mph N/A   Clear
3:54 PM 71.1 °F - 33.1 °F 25% 30.07 in 10.0 mi SW 15.0 mph - N/A   Clear
4:54 PM 64.9 °F - 46.0 °F 50% 30.07 in 10.0 mi WNW 5.8 mph - N/A   Clear
5:54 PM 63.0 °F - 41.0 °F 45% 30.08 in 10.0 mi SW 11.5 mph - N/A   Clear
6:54 PM 62.1 °F - 39.0 °F 43% 30.08 in 10.0 mi WSW 4.6 mph - N/A   Clear
7:54 PM 59.0 °F - 48.9 °F 69% 30.09 in 10.0 mi Calm Calm - N/A   Clear
8:54 PM 55.9 °F - 46.0 °F 69% 30.10 in 10.0 mi Calm Calm - N/A   Clear
9:54 PM 53.1 °F - 42.1 °F 66% 30.11 in 10.0 mi East 3.5 mph - N/A   Clear
10:54 PM 52.0 °F - 42.1 °F 69% 30.11 in 10.0 mi East 3.5 mph - N/A   Clear
11:54 PM 54.0 °F - 43.0 °F 66% 30.10 in 10.0 mi ESE 4.6 mph - N/A   Clear